CZ-6A DEB, 61105

Orbit data source: Space-Track

CZ-6A DEB, 61105 is space debris in LEO originally from a launch on Tue, 06 Aug 2024 UTC launched from the Taiyaun Space Center, China (TSC). Debris objects in space refer to the collection of defunct objects orbiting the Earth. Examples of debris include non-operational satellites, rocket bodies, and fragments generated from explosions, collisions, or faulty payload assembly.

Loading next visibility...
Identifier
61105, 2024-140NX
Orbit
LEO
Country
Flag of CNCN / PRC
Related business
Manufacturer
SAST
Mission
Spacecraft
Bus & Motor
Unknown
Mass
Unknown
Launch date (UTC)
2024-08-06 (2 years ago)
Launch vehicle
Unknown
Launch site
Taiyaun Space Center, China (TSC)
Object type
Payload
Rocket body
Debris
Shape & HBR
Unknown shape, 0.2 m
Radar Cross Section
Medium (>0.1 m² and <1 m²)

Expand to show TLE details & history
Last TLE update: 13 hours ago

TLE from 13 hours ago
0 CZ-6A DEB
1 61105U 24140NX  26171.28903227  .00001412  00000-0  61181-3 0  9992
2 61105  89.0009 274.1411 0043541 182.0452 178.0569 14.23257648 93998
Epoch: 2026-06-20T06:56Z
TLE epoch observation values (Epoch: 2026-06-20T06:56:12.388Z)
Latitude
-0.00001°
Longitude
-98.41631°
Altitude
848.72 km
Speed
7.412 km/s
True Right ascension
18h 16m 33s
True Declination
0° 00' 00"
Sunlit
Object was in full shadow at epoch
Visualization orbit readout
Latitude
Unknown
Longitude
Unknown
Altitude
Unknown
Speed
Unknown
Apparent Right ascension
Unknown
Apparent Declination
Unknown
Sunlit
N/A
Visualization observer readout
Local Sidereal Time
07:17:58
Azimuth
Unknown
Elevation
Unknown
Doppler factor
Unknown
Orbital elements
Apogee altitude
842.607 km
Perigee altitude
780 km
Semi-major axis
7,189.44 km
Eccentricity
0.00435
Inclination
89.0009°
RAAN
274.1411°
Arg. of periapsis
182.0452°
True anomaly
178.07373°
Mean anomaly
178.0569°
Eccentric anomaly
178.06532°
Mean motion
3.56041 °/min
Orbital period
101.11 mins
BSTAR
0.00061181
Loading maneuver chart data...
Computing Atmospheric mass density...
Loading historical data...
Loading historical data...
Loading historical data...
Loading historical data...
Loading historical data...
Loading historical data...
Loading historical data...

Documentation

Showing up to 5 results
|